Flag for Angola Weather past 2 weeks in Luanda, Angola

Now
90 °F

Partly sunny.


Feels Like: 98 °F
Forecast: 79 / 87 °F
Wind: 9 mph from West

Location: Luanda Airport

Current Time: Mar 6, 2015 at 2:10:12 PM

Latest Report: Mar 6, 2015 at 1:00 PM


Visibility: N/A

Pressure: 29.86 "Hg

Humidity: 59%

Dew point: 73 °F

Location of LuandaLocation

Historic Weather in Luanda — Graph

°F

Luanda temperature yesterday

Maximum temperature yesterday: 88 °F (at 2:00 PM)
Minimum temperature yesterday: 77 °F (at 8:00 AM)
Average temperature yesterday: 81 °F

Past Weeks' High & Low Weather Summary

 TemperatureHumidityPressure
High90 °F (Mar 4, 12:00 PM)100% (Feb 24, 7:00 AM)30.21 "Hg (Feb 24, 7:00 AM)
Low59 °F (Feb 24, 7:00 AM)59% (Mar 4, 12:00 PM)29.74 "Hg (Feb 19, 3:00 PM)
Average81 °F80%29.84 "Hg
* Reported Feb 19 12:00 Noon — Mar 6 12:00 Noon, Luanda, Weather by CustomWeather, © 2015

Note: Actual official high and low records may vary slightly from our data, if they occured in-between our weather recording intervals... More about our weather records

Advertising

Luanda weather history for previous 24 hours

 ConditionsComfort  
Time TempWeatherWind HumidityBarometerVisibility
12:00 PM
Fri, Mar 6
90 °FScattered clouds.7 mph59%29.92 "HgN/A
11:00 AM90 °FScattered clouds.3 mph59%29.92 "HgN/A
10:00 AM88 °FScattered clouds.5 mph62%29.92 "HgN/A
9:00 AM86 °FScattered clouds.6 mph66%29.92 "HgN/A
8:00 AM82 °FPartly sunny.5 mph74%29.89 "HgN/A
7:00 AM77 °FScattered clouds.5 mph94%29.86 "HgN/A
6:00 AM77 °FPassing clouds.5 mph94%29.86 "HgN/A
5:00 AM79 °FPassing clouds.3 mph84%29.86 "HgN/A
4:00 AM79 °FPassing clouds.No wind84%29.83 "HgN/A
3:00 AM79 °FPassing clouds.5 mph89%29.83 "HgN/A
1:00 AM79 °FPassing clouds.5 mph89%29.86 "HgN/A
11:00 PM
Thu, Mar 5
79 °FPassing clouds.6 mph89%29.89 "HgN/A
10:00 PM81 °FPassing clouds.9 mph84%29.86 "HgN/A
9:00 PM81 °FPassing clouds.7 mph84%29.83 "HgN/A
8:00 PM81 °FPassing clouds.5 mph84%29.83 "HgN/A
7:00 PM81 °FPassing clouds.7 mph84%29.80 "HgN/A
6:00 PM81 °FPartly sunny.7 mph84%29.80 "HgN/A
5:00 PM82 °FPartly sunny.8 mph74%29.77 "HgN/A
4:00 PM84 °FPartly sunny.9 mph74%29.77 "HgN/A
3:00 PM86 °FPartly sunny.8 mph66%29.77 "HgN/A
2:00 PM88 °FPartly sunny.7 mph62%29.80 "HgN/A
Weather by CustomWeather, © 2015

See weather overviewHow to use our weather pages